N7DTY Weather Reports


Display with metric or nautical units.
time (UTC)temp
F
wind
direction
speed
MPH
gust
MPH
rain 1hr
in
rain 24hr
in
rain mn
in
humidity
%
barometer
mb
20260901043003 59 294 0.0 0.0 0.00 0.00 0.00 86 1008.4
20260901041502 60 294 0.0 0.0 0.00 0.00 0.00 84 1008.4
20260901040002 61 294 0.0 0.0 0.00 0.00 0.00 83 1008.3
20260901034501 62 294 0.0 0.0 0.00 0.00 0.00 81 1008.3
20260901033002 62 294 0.0 0.0 0.00 0.00 0.00 79 1008.2
20260901031600 63 294 0.0 0.0 0.00 0.00 0.00 78 1008.2
20260901030100 64 294 0.0 0.0 0.00 0.00 0.00 76 1008.3
20260901024559 65 294 0.0 0.0 0.00 0.00 0.00 74 1008.2
20260901023057 65 294 0.0 0.0 0.00 0.00 0.00 73 1008.3
20260901021557 66 294 0.0 1.0 0.00 0.00 0.00 71 1008.4
20260901020058 67 294 0.0 0.0 0.00 0.00 0.00 69 1008.5
20260901014554 67 294 0.0 3.0 0.00 0.00 0.00 66 1008.6
20260901013100 68 309 0.0 2.0 0.00 0.00 0.00 66 1008.6
20260901011553 68 339 0.0 3.0 0.00 0.00 0.00 64 1008.7
20260901010056 69 341 0.0 5.0 0.00 0.00 0.00 63 1008.7
20260901004554 69 348 1.0 6.0 0.00 0.00 0.00 63 1008.7
20260901003051 70 244 1.0 6.0 0.00 0.00 0.00 61 1008.9
20260901001549 71 228 0.0 4.0 0.00 0.00 0.00 59 1009.0
20260901000057 72 11 1.0 7.0 0.00 0.00 0.00 59 1009.1
20260831234547 72 37 2.0 8.0 0.00 0.00 0.00 59 1009.3
20260831233044 72 89 1.0 8.0 0.00 0.00 0.00 61 1009.6
20260831231547 72 265 1.0 5.0 0.00 0.00 0.00 60 1009.7
20260831230043 74 27 1.0 6.0 0.00 0.00 0.00 59 1009.7
20260831224540 73 10 2.0 8.0 0.00 0.00 0.00 59 1009.8
20260831223039 73 20 3.0 6.0 0.00 0.00 0.00 62 1010.1
20260831221537 73 331 1.0 7.0 0.00 0.00 0.00 64 1010.2
20260831220036 74 27 2.0 8.0 0.00 0.00 0.00 60 1010.3
20260831214533 73 41 2.0 7.0 0.00 0.00 0.00 63 1010.6
20260831213034 71 44 2.0 9.0 0.00 0.00 0.00 69 1010.7
20260831211533 73 103 1.0 5.0 0.00 0.00 0.00 66 1010.9
20260831210130 73 271 1.0 6.0 0.00 0.00 0.00 62 1011.1
20260831204534 74 123 1.0 7.0 0.00 0.00 0.00 63 1011.1
20260831203028 73 55 2.0 6.0 0.00 0.00 0.00 63 1011.3
20260831201524 72 85 2.0 8.0 0.00 0.00 0.00 62 1011.5
20260831200024 74 142 2.0 6.0 0.00 0.00 0.00 58 1011.8
20260831194519 74 19 0.0 6.0 0.00 0.00 0.00 55 1011.9
20260831193023 72 5 3.0 9.0 0.00 0.00 0.00 58 1012.2
20260831191515 72 13 2.0 4.0 0.00 0.00 0.00 55 1012.3
20260831190011 70 18 4.0 9.0 0.00 0.00 0.00 59 1012.7
20260831184510 70 348 1.0 10.0 0.00 0.00 0.00 62 1012.8
20260831183006 70 46 2.0 6.0 0.00 0.00 0.00 63 1013.0
20260831181503 68 5 5.0 9.0 0.00 0.00 0.00 63 1013.2
20260831180100 67 349 6.0 10.0 0.00 0.00 0.00 64 1013.3
20260831174556 65 351 3.0 12.0 0.00 0.00 0.00 68 1013.5
20260831173053 65 355 6.0 11.0 0.00 0.00 0.00 69 1013.6
20260831171549 64 360 1.0 12.0 0.00 0.00 0.00 71 1013.6
20260831170045 63 13 2.0 8.0 0.00 0.00 0.00 73 1013.7
20260831164541 61 92 2.0 5.0 0.00 0.00 0.00 77 1013.7
20260831163038 60 329 2.0 10.0 0.00 0.00 0.00 79 1013.7
20260831161535 58 17 1.0 5.0 0.00 0.00 0.00 82 1013.7
20260831160035 57 325 2.0 6.0 0.00 0.00 0.00 84 1014.0
20260831154527 56 342 3.0 5.0 0.00 0.00 0.00 86 1014.2
20260831153022 55 355 2.0 5.0 0.00 0.00 0.00 88 1014.1
20260831151522 54 61 0.0 5.0 0.00 0.00 0.00 88 1014.2
20260831150021 54 347 2.0 4.0 0.00 0.00 0.00 89 1014.0
20260831144520 53 345 2.0 5.0 0.00 0.00 0.00 91 1014.0
20260831143019 53 355 2.0 5.0 0.00 0.00 0.00 91 1014.0
20260831141518 51 326 2.0 4.0 0.00 0.00 0.00 93 1013.9
20260831140017 50 355 0.0 2.0 0.00 0.00 0.00 92 1014.0
20260831134515 50 355 1.0 3.0 0.00 0.00 0.00 91 1014.0
20260831133017 50 355 0.0 1.0 0.00 0.00 0.00 90 1014.1
20260831131520 51 355 0.0 2.0 0.00 0.00 0.00 91 1014.0
20260831130009 51 355 0.0 2.0 0.00 0.00 0.00 90 1014.2
20260831124508 52 351 2.0 3.0 0.00 0.00 0.00 90 1014.2
20260831123006 52 355 2.0 3.0 0.00 0.00 0.00 89 1014.4
20260831121513 53 355 0.0 3.0 0.00 0.00 0.00 88 1014.4
20260831120007 53 355 2.0 5.0 0.00 0.00 0.00 88 1014.6
20260831114505 53 336 2.0 4.0 0.00 0.00 0.00 89 1014.6
20260831113001 53 355 1.0 3.0 0.00 0.00 0.00 88 1014.7
20260831111602 53 355 2.0 3.0 0.00 0.00 0.00 89 1014.9
20260831110106 53 355 1.0 3.0 0.00 0.00 0.00 88 1014.9
20260831104558 52 351 3.0 4.0 0.00 0.00 0.00 88 1015.0
20260831103055 52 317 2.0 3.0 0.00 0.00 0.00 89 1015.1
20260831101554 52 182 1.0 2.0 0.00 0.00 0.00 89 1015.2
20260831100051 52 182 0.0 0.0 0.00 0.00 0.00 89 1015.4
20260831094550 52 182 1.0 3.0 0.00 0.00 0.00 89 1015.4
20260831093049 53 182 1.0 3.0 0.00 0.00 0.00 89 1015.6
20260831091554 53 182 2.0 3.0 0.00 0.00 0.00 89 1016.0
20260831090043 53 182 1.0 2.0 0.00 0.00 0.00 89 1016.2
20260831084542 53 182 0.0 0.0 0.00 0.00 0.00 89 1016.3
20260831083042 53 182 0.0 0.0 0.00 0.00 0.00 88 1016.4
20260831081539 53 182 0.0 0.0 0.00 0.00 0.00 88 1016.5
20260831080037 54 182 0.0 0.0 0.00 0.00 0.00 88 1016.6
20260831074535 54 182 0.0 1.0 0.00 0.00 0.00 88 1016.7
20260831073031 54 182 0.0 1.0 0.00 0.00 0.00 87 1017.0
20260831071533 54 182 0.0 0.0 0.00 0.00 0.00 86 1017.0
20260831070030 54 182 0.0 1.0 0.00 0.00 0.00 86 1017.0
20260831064528 55 182 0.0 0.0 0.00 0.00 0.00 86 1017.0
20260831063027 55 182 0.0 0.0 0.00 0.00 0.00 85 1017.2
20260831061526 55 182 0.0 1.0 0.00 0.00 0.00 86 1017.3
20260831060026 55 182 0.0 1.0 0.00 0.00 0.00 85 1017.4
20260831054524 56 182 0.0 1.0 0.00 0.00 0.00 85 1017.5
20260831053023 56 182 0.0 1.0 0.00 0.00 0.00 85 1017.6
20260831051524 56 182 0.0 0.0 0.00 0.00 0.00 85 1017.6
20260831050022 57 182 0.0 2.0 0.00 0.00 0.00 85 1017.8
20260831044519 57 182 0.0 1.0 0.00 0.00 0.00 84 1017.8